Weather History for Staunton, VA

Change the Weather History Date:

Saturday, January 7, 2012

  Actual Average Record
Temperature  
Mean Temperature 46 °F -  
Max Temperature 60 °F 46 °F 71 °F (2008)
Min Temperature 32 °F 27 °F 1 °F (2014)
Degree Days  
Heating Degree Days 19    
Moisture  
Dew Point 32 °F    
Average Humidity 55    
Maximum Humidity 75    
Minimum Humidity 42    
Precipitation  
Precipitation 0.00 in - - ()
Sea Level Pressure  
Sea Level Pressure 29.91 in    
Wind  
Wind Speed 5 mph (SW)    
Max Wind Speed 13 mph    
Max Gust Speed 20 mph    
Visibility 10 miles    
Events      
Averages and records for this station are not official NWS values.
T = Trace of Precipitation, MM = Missing Value Source: NWS Daily Summary

Daily Weather History Graph

Daily Weather History Graph

Search for Another Location

Airport:

Trip Planner

Search our weather history database for the weather conditions in past years. The results will help you decide how hot, cold, wet, or windy it might be!

Date:

Astronomy

Jan. 07, 2012 Rise Set
Actual Time 7:32 AM EST 5:10 PM EST
Civil Twilight 7:03 AM EST 5:40 PM EST
Nautical Twilight 6:30 AM EST 6:13 PM EST
Astronomical Twilight 5:58 AM EST 6:45 PM EST
Moon 3:53 PM EST (1/7) 6:02 AM EST (1/7)
Length of Visible Light 10h 36m
Length of Day
9h 38m
Waxing Gibbous, 97% of the Moon is Illuminated
Jan 7
Waxing Gibbous
Jan 9
Full
Jan 16
Last Quarter
Jan 23
New
Jan 30
First Quarter

Hourly Weather History & Observations

Time (EST) Temp. Windchill Dew Point Humidity Pressure Visibility Wind Dir Wind Speed Gust Speed Precip Events Conditions
12:15 AM 39.2 °F 37.0 °F 24.8 °F 56% 29.88 in 10.0 mi South 3.5 mph - N/A   Clear
12:35 AM 35.6 °F 32.8 °F 24.8 °F 65% 29.88 in 10.0 mi SSW 3.5 mph - N/A   Clear
12:55 AM 37.4 °F 33.8 °F 23.0 °F 56% 29.88 in 10.0 mi SSW 4.6 mph - N/A   Clear
1:15 AM 37.4 °F 33.8 °F 23.0 °F 56% 29.88 in 10.0 mi SW 4.6 mph - N/A   Clear
1:35 AM 39.2 °F 35.0 °F 23.0 °F 52% 29.88 in 10.0 mi SSW 5.8 mph - N/A   Clear
1:55 AM 41.0 °F 38.0 °F 23.0 °F 49% 29.89 in 10.0 mi SW 4.6 mph - N/A   Clear
2:15 AM 41.0 °F 38.0 °F 23.0 °F 49% 29.90 in 10.0 mi SW 4.6 mph - N/A   Clear
2:35 AM 41.0 °F 39.0 °F 21.2 °F 45% 29.90 in 10.0 mi SSW 3.5 mph - N/A   Clear
2:55 AM 41.0 °F 38.0 °F 21.2 °F 45% 29.90 in 10.0 mi SSW 4.6 mph - N/A   Clear
3:15 AM 41.0 °F - 21.2 °F 45% 29.90 in 10.0 mi Calm Calm - N/A   Clear
3:35 AM 33.8 °F - 23.0 °F 65% 29.89 in 10.0 mi Calm Calm - N/A   Clear
3:55 AM 37.4 °F - 21.2 °F 52% 29.88 in 10.0 mi Calm Calm - N/A   Clear
4:35 AM 33.8 °F 29.6 °F 23.0 °F 65% 29.86 in 10.0 mi SSW 4.6 mph - N/A   Clear
4:55 AM 37.4 °F - 23.0 °F 56% 29.86 in 10.0 mi Calm Calm - N/A   Clear
5:15 AM 41.0 °F - 23.0 °F 49% 29.86 in 10.0 mi Calm Calm - N/A   Clear
5:35 AM 32.0 °F 28.7 °F 23.0 °F 69% 29.86 in 10.0 mi WSW 3.5 mph - N/A   Clear
5:55 AM 32.0 °F 28.7 °F 23.0 °F 69% 29.86 in 10.0 mi South 3.5 mph - N/A   Clear
6:15 AM 41.0 °F 39.0 °F 26.6 °F 57% 29.86 in 10.0 mi South 3.5 mph - N/A   Clear
6:35 AM 37.4 °F - 26.6 °F 65% 29.86 in 10.0 mi Calm Calm - N/A   Clear
6:55 AM 35.6 °F 32.8 °F 26.6 °F 70% 29.86 in 10.0 mi SW 3.5 mph - N/A   Clear
7:15 AM 42.8 °F 38.0 °F 30.2 °F 61% 29.86 in 10.0 mi SSW 8.1 mph - N/A   Clear
7:35 AM 46.4 °F 42.4 °F 32.0 °F 57% 29.86 in 10.0 mi South 8.1 mph - N/A   Clear
7:55 AM 46.4 °F 42.4 °F 33.8 °F 62% 29.86 in 10.0 mi South 8.1 mph - N/A   Mostly Cloudy
8:15 AM 46.4 °F 44.3 °F 33.8 °F 62% 29.87 in 10.0 mi SSE 4.6 mph - N/A   Scattered Clouds
8:35 AM 48.2 °F - 33.8 °F 58% 29.88 in 10.0 mi SSW 3.5 mph - N/A   Clear
8:55 AM 50.0 °F - 35.6 °F 58% 29.88 in 10.0 mi Calm Calm - N/A   Clear
9:15 AM 51.8 °F - 37.4 °F 58% 29.89 in 10.0 mi SSW 8.1 mph - N/A   Scattered Clouds
9:35 AM 53.6 °F - 39.2 °F 58% 29.89 in 10.0 mi SSW 6.9 mph - N/A   Mostly Cloudy
9:55 AM 53.6 °F - 39.2 °F 58% 29.90 in 10.0 mi South 5.8 mph - N/A   Mostly Cloudy
10:15 AM 57.2 °F - 41.0 °F 55% 29.90 in 10.0 mi SSW 10.4 mph - N/A   Mostly Cloudy
10:35 AM 59.0 °F - 41.0 °F 51% 29.90 in 10.0 mi SW 11.5 mph - N/A   Overcast
10:55 AM 59.0 °F - 41.0 °F 51% 29.90 in 10.0 mi SW 10.4 mph - N/A   Mostly Cloudy
11:15 AM 59.0 °F - 41.0 °F 51% 29.89 in 10.0 mi SSW 8.1 mph - N/A   Scattered Clouds
11:35 AM 59.0 °F - 41.0 °F 51% 29.88 in 10.0 mi SW 8.1 mph - N/A   Clear
11:55 AM 60.8 °F - 41.0 °F 48% 29.87 in 10.0 mi SSW 10.4 mph - N/A   Scattered Clouds
12:15 PM 60.8 °F - 41.0 °F 48% 29.86 in 10.0 mi SW 11.5 mph 17.3 mph N/A   Scattered Clouds
12:35 PM 60.8 °F - 41.0 °F 48% 29.86 in 10.0 mi WSW 11.5 mph 18.4 mph N/A   Mostly Cloudy
12:55 PM 60.8 °F - 41.0 °F 48% 29.86 in 10.0 mi WSW 9.2 mph 19.6 mph N/A   Overcast
1:15 PM 60.8 °F - 41.0 °F 48% 29.87 in 10.0 mi West 12.7 mph 19.6 mph N/A   Overcast
1:35 PM 59.0 °F - 41.0 °F 51% 29.87 in 10.0 mi West 8.1 mph 17.3 mph N/A   Overcast
1:55 PM 59.0 °F - 41.0 °F 51% 29.88 in 10.0 mi West 10.4 mph 19.6 mph N/A   Overcast
2:15 PM 59.0 °F - 41.0 °F 51% 29.88 in 10.0 mi West 11.5 mph 18.4 mph N/A   Scattered Clouds
2:35 PM 59.0 °F - 41.0 °F 51% 29.89 in 10.0 mi West 10.4 mph - N/A   Mostly Cloudy
2:55 PM 60.8 °F - 37.4 °F 42% 29.89 in 10.0 mi West 11.5 mph - N/A   Mostly Cloudy
3:15 PM 59.0 °F - 39.2 °F 48% 29.90 in 10.0 mi WSW 6.9 mph - N/A   Overcast
3:55 PM 59.0 °F - 37.4 °F 45% 29.91 in 10.0 mi West 12.7 mph 18.4 mph N/A   Clear
4:15 PM 59.0 °F - 37.4 °F 45% 29.92 in 10.0 mi West 9.2 mph 19.6 mph N/A   Scattered Clouds
4:35 PM 57.2 °F - 37.4 °F 48% 29.93 in 10.0 mi West 8.1 mph - N/A   Mostly Cloudy
4:55 PM 55.4 °F - 37.4 °F 51% 29.93 in 10.0 mi West 8.1 mph - N/A   Scattered Clouds
5:15 PM 55.4 °F - 37.4 °F 51% 29.94 in 10.0 mi West 6.9 mph - N/A   Clear
5:35 PM 53.6 °F - 37.4 °F 54% 29.95 in 10.0 mi WSW 8.1 mph - N/A   Clear
5:55 PM 53.6 °F - 37.4 °F 54% 29.96 in 10.0 mi West 4.6 mph - N/A   Clear
6:15 PM 53.6 °F - 35.6 °F 51% 29.97 in 10.0 mi West 5.8 mph - N/A   Clear
6:35 PM 51.8 °F - 33.8 °F 50% 29.98 in 10.0 mi West 4.6 mph - N/A   Clear
6:55 PM 51.8 °F - 32.0 °F 47% 29.98 in 10.0 mi WNW 5.8 mph - N/A   Clear
7:15 PM 51.8 °F - 30.2 °F 44% 29.99 in 10.0 mi WNW 5.8 mph - N/A   Clear
7:35 PM 46.4 °F 45.2 °F 30.2 °F 53% 30.00 in 10.0 mi West 3.5 mph - N/A   Clear
7:55 PM 46.4 °F 45.2 °F 30.2 °F 53% 30.01 in 10.0 mi WNW 3.5 mph - N/A   Clear
8:15 PM 46.4 °F 44.3 °F 30.2 °F 53% 30.01 in 10.0 mi NW 4.6 mph - N/A   Clear
8:35 PM 42.8 °F 39.3 °F 30.2 °F 61% 30.02 in 10.0 mi NW 5.8 mph - N/A   Clear
8:55 PM 44.6 °F 42.2 °F 32.0 °F 61% 30.03 in 10.0 mi NW 4.6 mph - N/A   Clear
9:15 PM 42.8 °F 39.3 °F 32.0 °F 66% 30.04 in 10.0 mi NNW 5.8 mph - N/A   Clear
9:35 PM 37.4 °F 34.9 °F 30.2 °F 75% 30.04 in 10.0 mi SW 3.5 mph - N/A   Clear
9:55 PM 37.4 °F - 30.2 °F 75% 30.05 in 10.0 mi Calm Calm - N/A   Clear
10:15 PM 37.4 °F - 30.2 °F 75% 30.06 in 10.0 mi Calm Calm - N/A   Clear
10:35 PM 35.6 °F - 30.2 °F 81% 30.07 in 10.0 mi Calm Calm - N/A   Clear
10:55 PM 37.4 °F - 28.4 °F 70% 30.08 in 10.0 mi Calm Calm - N/A   Clear
11:15 PM 37.4 °F - 28.4 °F 70% 30.08 in 10.0 mi Calm Calm - N/A   Clear
11:35 PM 35.6 °F - 26.6 °F 70% 30.08 in 10.0 mi Calm Calm - N/A   Clear
11:55 PM 39.2 °F 37.0 °F 28.4 °F 65% 30.09 in 10.0 mi SE 3.5 mph - N/A   Clear